Вернуться в каталог

HULIANWANG DIGUI-28

АктивенСвязьPO
NORAD 63695·PAYLOAD·🇨🇳 China

Запущен Apr 28, 2025 с Wenchang Space Launch Site

Loading…

Ближайшие Пролёты (ближайшие 24 часа)

TLE

СвежийSource: Space-Track

Эпоха: Sep 14, 2026, 22:04 UTC

1 63695U 25086J   26257.91951664  .00000038  00000-0  54162-4 0  9996
2 63695  86.4944 282.6751 0001903  81.0951 279.0399 13.24414355 66737

Отслеживайте HULIANWANG DIGUI-28 в реальном времени с AllMySat

Download on the App Store